,,,PA_Meas_PMT16A,,PR_Meas_QMR101_102,,RH_Meas_QMH101,,SR_Meas_QMS101,,TA_Meas_QMH101,,GenWind,,GenWind,
date,time,status,PA,status,PR,status,RH,status,SR,status,TA,status,DirAvg,status,SpdAvg,
2010-03-25, 00:00:04,VALID,999.101,VALID,0,VALID,90.0906,VALID,0,VALID,23.8591,VALID,90,VALID,0,
2010-03-25, 00:01:04,VALID,999.053,VALID,0,VALID,90.2966,VALID,0,VALID,23.8573,VALID,90,VALID,0,
2010-03-25, 00:02:04,VALID,999.06,VALID,0,VALID,90.4873,VALID,0,VALID,23.8573,VALID,90,VALID,0,
2010-03-25, 00:03:04,VALID,999.02,VALID,0,VALID,90.5788,VALID,0,VALID,23.8963,VALID,90,VALID,0.0078125,
2010-03-25, 00:04:04,VALID,998.999,VALID,0,VALID,90.6857,VALID,0,VALID,23.9159,VALID,90,VALID,0.178906,
2010-03-25, 00:05:04,VALID,999.02,VALID,0,VALID,90.7467,VALID,0,VALID,23.9177,VALID,90,VALID,0.123828,
2010-03-25, 00:06:04,VALID,998.989,VALID,0,VALID,90.7849,VALID,0,VALID,23.8963,VALID,90,VALID,0.314063,
2010-03-25, 00:07:04,VALID,999.024,VALID,0,VALID,90.9146,VALID,0,VALID,23.9159,VALID,92,VALID,0.379687,
2010-03-25, 00:08:04,VALID,999.035,VALID,0,VALID,90.9069,VALID,0,VALID,23.9159,VALID,121,VALID,0.642578,
2010-03-25, 00:09:04,VALID,999.012,VALID,0,VALID,90.5483,VALID,0,VALID,23.9159,VALID,131,VALID,0.660156,
2010-03-25, 00:10:04,VALID,998.998,VALID,0,VALID,90.3347,VALID,0,VALID,23.8768,VALID,152,VALID,0.736328,
2010-03-25, 00:11:04,VALID,998.975,VALID,0,VALID,90.2355,VALID,0,VALID,23.8768,VALID,130,VALID,0.715234,
2010-03-25, 00:12:04,VALID,998.984,VALID,0,VALID,90.2355,VALID,0,VALID,23.8768,VALID,130,VALID,0.579297,
2010-03-25, 00:13:04,VALID,998.926,VALID,0,VALID,90.0295,VALID,0,VALID,23.8768,VALID,120,VALID,0.454688,
2010-03-25, 00:14:04,VALID,998.921,VALID,0,VALID,89.9151,VALID,0,VALID,23.8573,VALID,120,VALID,0.530469,
2010-03-25, 00:15:04,VALID,998.907,VALID,0,VALID,89.9761,VALID,0,VALID,23.8786,VALID,120,VALID,0.526172,
2010-03-25, 00:16:04,VALID,998.897,VALID,0,VALID,89.999,VALID,0,VALID,23.8573,VALID,120,VALID,0.328906,
2010-03-25, 00:17:04,VALID,998.863,VALID,0,VALID,89.8846,VALID,0,VALID,23.8378,VALID,120,VALID,0.239063,
2010-03-25, 00:18:04,VALID,998.904,VALID,0,VALID,89.8083,VALID,0,VALID,23.8378,VALID,120,VALID,0.090625,
2010-03-25, 00:19:04,VALID,998.852,VALID,0,VALID,89.8998,VALID,0,VALID,23.8183,VALID,120,VALID,0.147266,
2010-03-25, 00:20:04,VALID,998.827,VALID,0,VALID,89.9151,VALID,0,VALID,23.8201,VALID,117,VALID,0.346094,
2010-03-25, 00:21:04,VALID,998.849,VALID,0,VALID,89.9685,VALID,0,VALID,23.7793,VALID,102,VALID,0.369922,
2010-03-25, 00:22:04,VALID,998.862,VALID,0,VALID,89.9227,VALID,0,VALID,23.7793,VALID,100,VALID,0.309766,
2010-03-25, 00:23:04,VALID,998.837,VALID,0,VALID,89.8998,VALID,0,VALID,23.7597,VALID,100,VALID,0.490234,
2010-03-25, 00:24:04,VALID,998.845,VALID,0,VALID,90.1897,VALID,0,VALID,23.7402,VALID,100,VALID,0.292969,
2010-03-25, 00:25:04,VALID,998.81,VALID,0,VALID,90.2279,VALID,0,VALID,23.7402,VALID,100,VALID,0.285156,
2010-03-25, 00:26:04,VALID,998.831,VALID,0,VALID,90.3118,VALID,0,VALID,23.7402,VALID,100,VALID,0.270312,
2010-03-25, 00:27:04,VALID,998.841,VALID,0,VALID,90.3957,VALID,0,VALID,23.7402,VALID,100,VALID,0.29375,
2010-03-25, 00:28:04,VALID,998.816,VALID,0,VALID,90.4263,VALID,0,VALID,23.7597,VALID,99,VALID,0.390625,
2010-03-25, 00:29:04,VALID,998.838,VALID,0,VALID,90.3957,VALID,0,VALID,23.7402,VALID,58,VALID,0.533984,
2010-03-25, 00:30:04,VALID,998.829,VALID,0,VALID,90.3881,VALID,0,VALID,23.7207,VALID,58,VALID,0.370703,
2010-03-25, 00:31:04,VALID,998.813,VALID,0,VALID,90.4339,VALID,0,VALID,23.7012,VALID,58,VALID,0.403906,
2010-03-25, 00:32:04,VALID,998.809,VALID,0,VALID,90.5102,VALID,0,VALID,23.7012,VALID,58,VALID,0.479688,
2010-03-25, 00:33:04,VALID,998.786,VALID,0,VALID,90.6475,VALID,0,VALID,23.7402,VALID,58,VALID,0.370703,
2010-03-25, 00:34:04,VALID,998.81,VALID,0,VALID,90.7391,VALID,0,VALID,23.7597,VALID,58,VALID,0.573438,
2010-03-25, 00:35:04,VALID,998.834,VALID,0,VALID,90.6399,VALID,0,VALID,23.7597,VALID,58,VALID,0.517969,
2010-03-25, 00:36:04,VALID,998.806,VALID,0,VALID,90.6475,VALID,0,VALID,23.7793,VALID,58,VALID,0.628125,
2010-03-25, 00:37:04,VALID,998.782,VALID,0,VALID,90.884,VALID,0,VALID,23.7793,VALID,33,VALID,0.778516,
2010-03-25, 00:38:04,VALID,998.762,VALID,0,VALID,90.3347,VALID,0,VALID,23.7402,VALID,29,VALID,0.523828,
2010-03-25, 00:39:04,VALID,998.755,VALID,0,VALID,90.7925,VALID,0,VALID,23.7012,VALID,41,VALID,0.630469,
2010-03-25, 00:40:04,VALID,998.744,VALID,0,VALID,90.9832,VALID,0,VALID,23.7207,VALID,41,VALID,0.53125,
2010-03-25, 00:41:04,VALID,998.735,VALID,0,VALID,90.7696,VALID,0,VALID,23.7012,VALID,41,VALID,0.567969,
2010-03-25, 00:42:04,VALID,998.735,VALID,0,VALID,91.0595,VALID,0,VALID,23.7012,VALID,41,VALID,0.512891,
2010-03-25, 00:43:04,VALID,998.71,VALID,0,VALID,91.0671,VALID,0,VALID,23.7012,VALID,41,VALID,0.457812,
2010-03-25, 00:44:04,VALID,998.706,VALID,0,VALID,91.1816,VALID,0,VALID,23.7207,VALID,41,VALID,0.227344,
2010-03-25, 00:45:04,VALID,998.675,VALID,0,VALID,91.1511,VALID,0,VALID,23.7207,VALID,41,VALID,0.173828,
2010-03-25, 00:46:04,VALID,998.656,VALID,0,VALID,91.1206,VALID,0,VALID,23.7207,VALID,41,VALID,0.0554687,
2010-03-25, 00:47:04,VALID,998.655,VALID,0,VALID,91.0595,VALID,0,VALID,23.7012,VALID,41,VALID,0,
2010-03-25, 00:48:04,VALID,998.637,VALID,0,VALID,91.0671,VALID,0,VALID,23.6817,VALID,41,VALID,0,
2010-03-25, 00:49:04,VALID,998.62,VALID,0,VALID,91.1968,VALID,0,VALID,23.703,VALID,41,VALID,0.071875,
2010-03-25, 00:50:04,VALID,998.6,VALID,0,VALID,91.2808,VALID,0,VALID,23.6817,VALID,41,VALID,0.23125,
2010-03-25, 00:51:04,VALID,998.599,VALID,0,VALID,91.296,VALID,0,VALID,23.6622,VALID,41,VALID,0.221875,
2010-03-25, 00:52:04,VALID,998.589,VALID,0,VALID,91.3952,VALID,0,VALID,23.7012,VALID,41,VALID,0.375391,
2010-03-25, 00:53:04,VALID,998.57,VALID,0,VALID,91.4334,VALID,0,VALID,23.6817,VALID,41,VALID,0.464844,
2010-03-25, 00:54:04,VALID,998.543,VALID,0,VALID,91.4868,VALID,0,VALID,23.7225,VALID,41,VALID,0.563672,
2010-03-25, 00:55:04,VALID,998.576,VALID,0,VALID,91.4181,VALID,0,VALID,23.7012,VALID,41,VALID,0.545313,
2010-03-25, 00:56:04,VALID,998.541,VALID,0,VALID,91.3647,VALID,0,VALID,23.6817,VALID,41,VALID,0.671484,
2010-03-25, 00:57:04,VALID,998.561,VALID,0,VALID,91.235,VALID,0,VALID,23.6622,VALID,41,VALID,0.690234,
2010-03-25, 00:58:04,VALID,998.549,VALID,0,VALID,91.1968,VALID,0,VALID,23.6427,VALID,41,VALID,0.598047,
2010-03-25, 00:59:04,VALID,998.53,VALID,0,VALID,91.2121,VALID,0,VALID,23.6036,VALID,41,VALID,0.498047,
2010-03-25, 01:00:04,VALID,998.551,VALID,0,VALID,91.3189,VALID,0,VALID,23.6036,VALID,41,VALID,0.361719,
2010-03-25, 01:01:04,VALID,998.511,VALID,0,VALID,91.3189,VALID,0,VALID,23.5841,VALID,41,VALID,0.235938,
2010-03-25, 01:02:04,VALID,998.506,VALID,0,VALID,91.3342,VALID,0,VALID,23.6036,VALID,41,VALID,0,
2010-03-25, 01:03:04,VALID,998.47,VALID,0,VALID,91.3189,VALID,0,VALID,23.6054,VALID,41,VALID,0,
2010-03-25, 01:04:04,VALID,998.44,VALID,0,VALID,91.3037,VALID,0,VALID,23.5859,VALID,41,VALID,0,
2010-03-25, 01:05:04,VALID,998.436,VALID,0,VALID,91.3494,VALID,0,VALID,23.5451,VALID,41,VALID,0,
2010-03-25, 01:06:04,VALID,998.402,VALID,0,VALID,91.4105,VALID,0,VALID,23.5646,VALID,41,VALID,0,
2010-03-25, 01:07:04,VALID,998.389,VALID,0,VALID,91.4791,VALID,0,VALID,23.5646,VALID,41,VALID,0,
2010-03-25, 01:08:04,VALID,998.359,VALID,0,VALID,91.4868,VALID,0,VALID,23.5451,VALID,41,VALID,0,
2010-03-25, 01:09:04,VALID,998.337,VALID,0,VALID,91.5173,VALID,0,VALID,23.5451,VALID,41,VALID,0,
2010-03-25, 01:10:04,VALID,998.328,VALID,0,VALID,91.4944,VALID,0,VALID,23.5256,VALID,41,VALID,0,
2010-03-25, 01:11:04,VALID,998.342,VALID,0,VALID,91.4868,VALID,0,VALID,23.5061,VALID,41,VALID,0,
2010-03-25, 01:12:04,VALID,998.32,VALID,0,VALID,91.4563,VALID,0,VALID,23.4866,VALID,41,VALID,0,
2010-03-25, 01:13:04,VALID,998.314,VALID,0,VALID,91.4334,VALID,0,VALID,23.4475,VALID,41,VALID,0,
2010-03-25, 01:14:04,VALID,998.312,VALID,0,VALID,91.6394,VALID,0,VALID,23.4475,VALID,41,VALID,0,
2010-03-25, 01:15:04,VALID,998.318,VALID,0,VALID,91.7691,VALID,0,VALID,23.4475,VALID,41,VALID,0.00429688,
2010-03-25, 01:16:04,VALID,998.305,VALID,0,VALID,91.8072,VALID,0,VALID,23.428,VALID,41,VALID,0.075,
2010-03-25, 01:17:04,VALID,998.298,VALID,0,VALID,91.8683,VALID,0,VALID,23.4475,VALID,96,VALID,0.464844,
2010-03-25, 01:18:04,VALID,998.267,VALID,0,VALID,91.9445,VALID,0,VALID,23.4475,VALID,98,VALID,0.245703,
2010-03-25, 01:19:04,VALID,998.261,VALID,0,VALID,91.8377,VALID,0,VALID,23.4475,VALID,98,VALID,0.407813,
2010-03-25, 01:20:04,VALID,998.259,VALID,0,VALID,91.9293,VALID,0,VALID,23.4475,VALID,98,VALID,0.326172,
2010-03-25, 01:21:04,VALID,998.237,VALID,0,VALID,91.9827,VALID,0,VALID,23.4475,VALID,98,VALID,0.35,
2010-03-25, 01:22:04,VALID,998.234,VALID,0,VALID,92.1048,VALID,0,VALID,23.4671,VALID,118,VALID,0.360156,
2010-03-25, 01:23:04,VALID,998.214,VALID,0,VALID,91.9827,VALID,0,VALID,23.4866,VALID,117,VALID,0.289063,
2010-03-25, 01:24:04,VALID,998.192,VALID,0,VALID,92.0132,VALID,0,VALID,23.5061,VALID,117,VALID,0.351563,
2010-03-25, 01:25:04,VALID,998.202,VALID,0,VALID,91.9522,VALID,0,VALID,23.4653,VALID,117,VALID,0.341797,
2010-03-25, 01:26:04,VALID,998.167,VALID,0,VALID,91.8911,VALID,0,VALID,23.5061,VALID,119,VALID,0.419531,
2010-03-25, 01:27:04,VALID,998.196,VALID,0,VALID,91.8683,VALID,0,VALID,23.4671,VALID,119,VALID,0.305859,
2010-03-25, 01:28:04,VALID,998.169,VALID,0,VALID,91.9217,VALID,0,VALID,23.4671,VALID,119,VALID,0.291797,
2010-03-25, 01:29:04,VALID,998.158,VALID,0,VALID,91.9064,VALID,0,VALID,23.4475,VALID,119,VALID,0.0914062,
2010-03-25, 01:30:04,VALID,998.17,VALID,0,VALID,91.8988,VALID,0,VALID,23.4475,VALID,119,VALID,0,
2010-03-25, 01:31:04,VALID,998.15,VALID,0,VALID,91.8606,VALID,0,VALID,23.4671,VALID,119,VALID,0.0359375,
2010-03-25, 01:32:04,VALID,998.128,VALID,0,VALID,91.8301,VALID,0,VALID,23.428,VALID,119,VALID,0.00507812,
2010-03-25, 01:33:04,VALID,998.139,VALID,0,VALID,91.8911,VALID,0,VALID,23.428,VALID,119,VALID,0,
2010-03-25, 01:34:04,VALID,998.109,VALID,0,VALID,91.792,VALID,0,VALID,23.4085,VALID,119,VALID,0,
2010-03-25, 01:35:04,VALID,998.096,VALID,0,VALID,91.7614,VALID,0,VALID,23.3695,VALID,119,VALID,0,
2010-03-25, 01:36:04,VALID,998.088,VALID,0,VALID,91.7157,VALID,0,VALID,23.3287,VALID,119,VALID,0,
2010-03-25, 01:37:04,VALID,998.115,VALID,0,VALID,91.8225,VALID,0,VALID,23.3305,VALID,119,VALID,0,
2010-03-25, 01:38:04,VALID,998.08,VALID,0,VALID,91.8225,VALID,0,VALID,23.311,VALID,119,VALID,0,
2010-03-25, 01:39:04,VALID,998.058,VALID,0,VALID,91.8377,VALID,0,VALID,23.311,VALID,119,VALID,0,
2010-03-25, 01:40:04,VALID,998.076,VALID,0,VALID,91.7996,VALID,0,VALID,23.2915,VALID,119,VALID,0,
2010-03-25, 01:41:04,VALID,998.032,VALID,0,VALID,91.7767,VALID,0,VALID,23.2719,VALID,119,VALID,0,
2010-03-25, 01:42:04,VALID,998.037,VALID,0,VALID,91.8148,VALID,0,VALID,23.2329,VALID,119,VALID,0,
2010-03-25, 01:43:04,VALID,998.012,VALID,0,VALID,91.914,VALID,0,VALID,23.2134,VALID,119,VALID,0,
2010-03-25, 01:44:04,VALID,998.005,VALID,0,VALID,92.059,VALID,0,VALID,23.2524,VALID,117,VALID,0.0046875,
2010-03-25, 01:45:04,VALID,998.004,VALID,0,VALID,92.1811,VALID,0,VALID,23.2915,VALID,101,VALID,0.398828,
2010-03-25, 01:46:04,VALID,997.973,VALID,0,VALID,92.1658,VALID,0,VALID,23.311,VALID,101,VALID,0.422656,
2010-03-25, 01:47:04,VALID,997.983,VALID,0,VALID,92.0514,VALID,0,VALID,23.311,VALID,95,VALID,0.523828,
2010-03-25, 01:48:04,VALID,997.956,VALID,0,VALID,91.914,VALID,0,VALID,23.2719,VALID,95,VALID,0.64375,
2010-03-25, 01:49:04,VALID,997.959,VALID,0,VALID,91.9293,VALID,0,VALID,23.2524,VALID,95,VALID,0.523438,
2010-03-25, 01:50:04,VALID,997.921,VALID,0,VALID,91.9598,VALID,0,VALID,23.2524,VALID,95,VALID,0.566797,
2010-03-25, 01:51:05,VALID,997.915,VALID,0,VALID,91.9293,VALID,0,VALID,23.2524,VALID,95,VALID,0.338672,
2010-03-25, 01:52:05,VALID,997.902,VALID,0,VALID,91.8988,VALID,0,VALID,23.2524,VALID,95,VALID,0.425391,
2010-03-25, 01:53:05,VALID,997.907,VALID,0,VALID,91.9293,VALID,0,VALID,23.2329,VALID,95,VALID,0.474609,
2010-03-25, 01:54:05,VALID,997.855,VALID,0,VALID,92.0514,VALID,0,VALID,23.2524,VALID,95,VALID,0.457812,
2010-03-25, 01:55:05,VALID,997.873,VALID,0,VALID,92.0285,VALID,0,VALID,23.2719,VALID,95,VALID,0.426953,
2010-03-25, 01:56:05,VALID,997.854,VALID,0,VALID,91.9598,VALID,0,VALID,23.2507,VALID,95,VALID,0.380859,
2010-03-25, 01:57:05,VALID,997.856,VALID,0,VALID,91.9445,VALID,0,VALID,23.2524,VALID,95,VALID,0.463281,
2010-03-25, 01:58:05,VALID,997.826,VALID,0,VALID,91.9369,VALID,0,VALID,23.2524,VALID,95,VALID,0.241406,
2010-03-25, 01:59:05,VALID,997.849,VALID,0,VALID,91.9445,VALID,0,VALID,23.2524,VALID,95,VALID,0.182422,
2010-03-25, 02:00:05,VALID,997.844,VALID,0,VALID,91.8148,VALID,0,VALID,23.2524,VALID,95,VALID,0.183594,
2010-03-25, 02:01:05,VALID,997.838,VALID,0,VALID,91.8377,VALID,0,VALID,23.1921,VALID,95,VALID,0.312891,
2010-03-25, 02:02:05,VALID,997.828,VALID,0,VALID,91.8225,VALID,0,VALID,23.1921,VALID,95,VALID,0.433984,
2010-03-25, 02:03:05,VALID,997.837,VALID,0,VALID,91.7996,VALID,0,VALID,23.1939,VALID,101,VALID,0.389062,
2010-03-25, 02:04:05,VALID,997.82,VALID,0,VALID,91.9522,VALID,0,VALID,23.1744,VALID,101,VALID,0.590234,
2010-03-25, 02:05:05,VALID,997.803,VALID,0,VALID,92.0666,VALID,0,VALID,23.1939,VALID,111,VALID,0.745313,
2010-03-25, 02:06:05,VALID,997.811,VALID,0,VALID,91.9674,VALID,0,VALID,23.2134,VALID,111,VALID,0.713672,
2010-03-25, 02:07:05,VALID,997.836,VALID,0,VALID,91.8225,VALID,0,VALID,23.1726,VALID,111,VALID,0.571484,
2010-03-25, 02:08:05,VALID,997.831,VALID,0,VALID,91.9598,VALID,0,VALID,23.1939,VALID,111,VALID,0.427344,
2010-03-25, 02:09:05,VALID,997.826,VALID,0,VALID,91.914,VALID,0,VALID,23.1921,VALID,111,VALID,0.410547,
2010-03-25, 02:10:05,VALID,997.814,VALID,0,VALID,91.792,VALID,0,VALID,23.1744,VALID,111,VALID,0.294531,
2010-03-25, 02:11:05,VALID,997.809,VALID,0,VALID,91.6851,VALID,0,VALID,23.1549,VALID,123,VALID,0.359766,
2010-03-25, 02:12:05,VALID,997.789,VALID,0,VALID,91.6775,VALID,0,VALID,23.1354,VALID,126,VALID,0.502344,
2010-03-25, 02:13:05,VALID,997.807,VALID,0,VALID,91.5936,VALID,0,VALID,23.0964,VALID,128,VALID,0.429297,
2010-03-25, 02:14:05,VALID,997.799,VALID,0,VALID,91.5936,VALID,0,VALID,23.0751,VALID,128,VALID,0.628125,
2010-03-25, 02:15:05,VALID,997.796,VALID,0,VALID,91.6165,VALID,0,VALID,23.0964,VALID,128,VALID,0.695313,
2010-03-25, 02:16:05,VALID,997.806,VALID,0,VALID,91.4715,VALID,0,VALID,23.0964,VALID,128,VALID,0.875,
2010-03-25, 02:17:05,VALID,997.814,VALID,0,VALID,91.502,VALID,0,VALID,23.0769,VALID,129,VALID,0.966016,
2010-03-25, 02:18:05,VALID,997.784,VALID,0,VALID,91.4105,VALID,0,VALID,23.0769,VALID,129,VALID,0.704297,
2010-03-25, 02:19:05,VALID,997.818,VALID,0,VALID,91.3571,VALID,0,VALID,23.0769,VALID,129,VALID,0.355078,
2010-03-25, 02:20:05,VALID,997.781,VALID,0,VALID,91.3494,VALID,0,VALID,23.0769,VALID,129,VALID,0,
2010-03-25, 02:21:05,VALID,997.773,VALID,0,VALID,91.2731,VALID,0,VALID,23.0573,VALID,123,VALID,0.0816406,
2010-03-25, 02:22:05,VALID,997.79,VALID,0,VALID,91.2274,VALID,0,VALID,23.0378,VALID,106,VALID,0.150781,
2010-03-25, 02:23:05,VALID,997.787,VALID,0,VALID,91.1206,VALID,0,VALID,23.0183,VALID,91,VALID,0.348437,
2010-03-25, 02:24:05,VALID,997.777,VALID,0,VALID,91.2503,VALID,0,VALID,22.9988,VALID,91,VALID,0.246484,
2010-03-25, 02:25:05,VALID,997.798,VALID,0,VALID,91.2808,VALID,0,VALID,22.9776,VALID,91,VALID,0.253516,
2010-03-25, 02:26:05,VALID,997.778,VALID,0,VALID,91.38,VALID,0,VALID,23.0183,VALID,91,VALID,0,
2010-03-25, 02:27:05,VALID,997.789,VALID,0,VALID,91.3266,VALID,0,VALID,22.9988,VALID,91,VALID,0,
2010-03-25, 02:28:05,VALID,997.779,VALID,0,VALID,91.3037,VALID,0,VALID,22.9988,VALID,91,VALID,0,
2010-03-25, 02:29:05,VALID,997.805,VALID,0,VALID,91.3418,VALID,0,VALID,22.9988,VALID,91,VALID,0,
2010-03-25, 02:30:05,VALID,997.791,VALID,0,VALID,91.3876,VALID,0,VALID,22.9988,VALID,91,VALID,0,
2010-03-25, 02:31:05,VALID,997.794,VALID,0,VALID,91.4715,VALID,0,VALID,22.9988,VALID,91,VALID,0,
2010-03-25, 02:32:05,VALID,997.786,VALID,0,VALID,91.502,VALID,0,VALID,23.0183,VALID,91,VALID,0,
2010-03-25, 02:33:05,VALID,997.827,VALID,0,VALID,91.4028,VALID,0,VALID,22.9988,VALID,91,VALID,0,
2010-03-25, 02:34:05,VALID,997.798,VALID,0,VALID,91.441,VALID,0,VALID,22.9793,VALID,91,VALID,0,
2010-03-25, 02:35:05,VALID,997.791,VALID,0,VALID,91.4563,VALID,0,VALID,22.9793,VALID,91,VALID,0,
2010-03-25, 02:36:05,VALID,997.804,VALID,0,VALID,91.4791,VALID,0,VALID,22.9988,VALID,91,VALID,0,
2010-03-25, 02:37:05,VALID,997.829,VALID,0,VALID,91.5326,VALID,0,VALID,22.9793,VALID,91,VALID,0,
2010-03-25, 02:38:05,VALID,997.809,VALID,0,VALID,91.5936,VALID,0,VALID,22.9776,VALID,91,VALID,0,
2010-03-25, 02:39:05,VALID,997.824,VALID,0,VALID,91.5402,VALID,0,VALID,22.9988,VALID,91,VALID,0,
2010-03-25, 02:40:05,VALID,997.81,VALID,0,VALID,91.502,VALID,0,VALID,22.9793,VALID,91,VALID,0,
2010-03-25, 02:41:05,VALID,997.829,VALID,0,VALID,91.4639,VALID,0,VALID,22.9385,VALID,91,VALID,0,
2010-03-25, 02:42:05,VALID,997.818,VALID,0,VALID,91.4028,VALID,0.112286,VALID,22.9403,VALID,91,VALID,0,
2010-03-25, 02:43:05,VALID,997.823,VALID,0,VALID,91.3647,VALID,0,VALID,22.8995,VALID,91,VALID,0,
2010-03-25, 02:44:05,VALID,997.796,VALID,0,VALID,91.4334,VALID,0,VALID,22.9013,VALID,91,VALID,0,
2010-03-25, 02:45:05,VALID,997.835,VALID,0,VALID,91.4639,VALID,0,VALID,22.9013,VALID,91,VALID,0,
2010-03-25, 02:46:05,VALID,997.816,VALID,0,VALID,91.5478,VALID,0,VALID,22.9208,VALID,91,VALID,0,
2010-03-25, 02:47:05,VALID,997.8,VALID,0,VALID,91.708,VALID,0,VALID,22.9208,VALID,92,VALID,0,
2010-03-25, 02:48:05,VALID,997.773,VALID,0,VALID,91.8225,VALID,0,VALID,22.9403,VALID,126,VALID,0,
2010-03-25, 02:49:05,VALID,997.786,VALID,0,VALID,91.792,VALID,0,VALID,22.9793,VALID,126,VALID,0,
2010-03-25, 02:50:05,VALID,997.783,VALID,0,VALID,91.6775,VALID,0,VALID,22.9988,VALID,126,VALID,0,
2010-03-25, 02:51:05,VALID,997.801,VALID,0,VALID,91.6317,VALID,0,VALID,22.9988,VALID,126,VALID,0,
2010-03-25, 02:52:05,VALID,997.779,VALID,0,VALID,91.6317,VALID,0,VALID,23.0183,VALID,126,VALID,0,
2010-03-25, 02:53:05,VALID,997.791,VALID,0,VALID,91.6241,VALID,0,VALID,23.0361,VALID,126,VALID,0,
2010-03-25, 02:54:05,VALID,997.826,VALID,0,VALID,91.5783,VALID,0,VALID,23.0769,VALID,126,VALID,0,
2010-03-25, 02:55:05,VALID,997.813,VALID,0,VALID,91.4257,VALID,0,VALID,23.1159,VALID,126,VALID,0,
2010-03-25, 02:56:05,VALID,997.869,VALID,0,VALID,91.2426,VALID,0,VALID,23.0946,VALID,126,VALID,0,
2010-03-25, 02:57:05,VALID,997.854,VALID,0,VALID,91.1968,VALID,0,VALID,23.1159,VALID,126,VALID,0,
2010-03-25, 02:58:05,VALID,997.886,VALID,0,VALID,91.1663,VALID,0,VALID,23.1354,VALID,126,VALID,0,
2010-03-25, 02:59:05,VALID,997.838,VALID,0,VALID,91.029,VALID,0,VALID,23.1159,VALID,127,VALID,0,
2010-03-25, 03:00:05,VALID,997.844,VALID,0,VALID,91.0061,VALID,0,VALID,23.1141,VALID,127,VALID,0,
2010-03-25, 03:01:05,VALID,997.852,VALID,0,VALID,90.7849,VALID,0,VALID,23.1141,VALID,127,VALID,0,
2010-03-25, 03:02:05,VALID,997.901,VALID,0,VALID,90.6399,VALID,0,VALID,23.1354,VALID,128,VALID,0,
2010-03-25, 03:03:05,VALID,997.872,VALID,0,VALID,90.5788,VALID,0,VALID,23.1141,VALID,128,VALID,0,
2010-03-25, 03:04:05,VALID,997.853,VALID,0,VALID,90.5026,VALID,0,VALID,23.1354,VALID,128,VALID,0,
2010-03-25, 03:05:05,VALID,997.898,VALID,0,VALID,90.5102,VALID,0,VALID,23.1141,VALID,128,VALID,0,
2010-03-25, 03:06:05,VALID,997.887,VALID,0,VALID,90.5407,VALID,0,VALID,23.1141,VALID,128,VALID,0,
2010-03-25, 03:07:05,VALID,997.865,VALID,0,VALID,90.4263,VALID,0,VALID,23.1336,VALID,128,VALID,0,
2010-03-25, 03:08:05,VALID,997.859,VALID,0,VALID,90.4263,VALID,0.112286,VALID,23.1141,VALID,128,VALID,0,
2010-03-25, 03:09:05,VALID,997.83,VALID,0,VALID,90.4415,VALID,0,VALID,23.1354,VALID,128,VALID,0,
2010-03-25, 03:10:05,VALID,997.841,VALID,0,VALID,90.3957,VALID,0,VALID,23.1354,VALID,126,VALID,0,
2010-03-25, 03:11:05,VALID,997.817,VALID,0,VALID,90.411,VALID,0,VALID,23.1354,VALID,124,VALID,0,
2010-03-25, 03:12:05,VALID,997.82,VALID,0,VALID,90.2355,VALID,0,VALID,23.0946,VALID,124,VALID,0,
2010-03-25, 03:13:05,VALID,997.836,VALID,0,VALID,90.3652,VALID,0,VALID,23.0964,VALID,124,VALID,0.283594,
2010-03-25, 03:14:05,VALID,997.845,VALID,0,VALID,90.4339,VALID,0,VALID,23.0751,VALID,124,VALID,0,
2010-03-25, 03:15:05,VALID,997.828,VALID,0,VALID,90.4873,VALID,0,VALID,23.0964,VALID,124,VALID,0,
2010-03-25, 03:16:05,VALID,997.817,VALID,0,VALID,90.5102,VALID,0,VALID,23.0964,VALID,124,VALID,0,
2010-03-25, 03:17:05,VALID,997.812,VALID,0,VALID,90.5407,VALID,0,VALID,23.0769,VALID,124,VALID,0,
2010-03-25, 03:18:05,VALID,997.798,VALID,0,VALID,90.6704,VALID,0,VALID,23.0751,VALID,124,VALID,0,
2010-03-25, 03:19:05,VALID,997.794,VALID,0,VALID,90.8001,VALID,0,VALID,23.0751,VALID,124,VALID,0,
2010-03-25, 03:20:05,VALID,997.748,VALID,0,VALID,90.8688,VALID,0,VALID,23.1159,VALID,124,VALID,0,
2010-03-25, 03:21:05,VALID,997.763,VALID,0,VALID,90.8611,VALID,0,VALID,23.1354,VALID,124,VALID,0,
2010-03-25, 03:22:05,VALID,997.728,VALID,0,VALID,90.35,VALID,0,VALID,23.0964,VALID,124,VALID,0,
2010-03-25, 03:23:05,VALID,997.739,VALID,0,VALID,90.3576,VALID,0,VALID,23.0183,VALID,124,VALID,0,
2010-03-25, 03:24:05,VALID,997.741,VALID,0,VALID,90.4797,VALID,0,VALID,22.9793,VALID,124,VALID,0,
2010-03-25, 03:25:05,VALID,997.753,VALID,0,VALID,90.6551,VALID,0,VALID,22.9403,VALID,124,VALID,0,
2010-03-25, 03:26:05,VALID,997.746,VALID,0,VALID,90.7391,VALID,0,VALID,22.9403,VALID,124,VALID,0,
2010-03-25, 03:27:05,VALID,997.744,VALID,0,VALID,90.6017,VALID,0,VALID,22.9013,VALID,124,VALID,0,
2010-03-25, 03:28:05,VALID,997.764,VALID,0,VALID,90.556,VALID,0,VALID,22.8623,VALID,124,VALID,0,
2010-03-25, 03:29:05,VALID,997.732,VALID,0,VALID,90.5102,VALID,0,VALID,22.8037,VALID,124,VALID,0,
2010-03-25, 03:30:05,VALID,997.704,VALID,0,VALID,90.6399,VALID,0,VALID,22.8055,VALID,124,VALID,0,
2010-03-25, 03:31:05,VALID,997.722,VALID,0,VALID,90.6933,VALID,0,VALID,22.7647,VALID,124,VALID,0,
2010-03-25, 03:32:05,VALID,997.742,VALID,0,VALID,90.9298,VALID,0,VALID,22.7452,VALID,124,VALID,0,
2010-03-25, 03:33:05,VALID,997.755,VALID,0,VALID,91.1358,VALID,0,VALID,22.7647,VALID,124,VALID,0,
2010-03-25, 03:34:05,VALID,997.767,VALID,0,VALID,91.2426,VALID,0,VALID,22.7647,VALID,124,VALID,0,
2010-03-25, 03:35:05,VALID,997.78,VALID,0,VALID,91.2808,VALID,0,VALID,22.7647,VALID,124,VALID,0,
2010-03-25, 03:36:05,VALID,997.783,VALID,0,VALID,91.4639,VALID,0,VALID,22.7842,VALID,124,VALID,0,
2010-03-25, 03:37:05,VALID,997.83,VALID,0,VALID,91.4181,VALID,0,VALID,22.8037,VALID,124,VALID,0,
2010-03-25, 03:38:05,VALID,997.808,VALID,0,VALID,91.3342,VALID,0,VALID,22.7825,VALID,124,VALID,0,
2010-03-25, 03:39:05,VALID,997.854,VALID,0,VALID,91.4715,VALID,0,VALID,22.7842,VALID,124,VALID,0,
2010-03-25, 03:40:05,VALID,997.84,VALID,0,VALID,91.5326,VALID,0,VALID,22.7842,VALID,124,VALID,0,
2010-03-25, 03:41:05,VALID,997.838,VALID,0,VALID,91.5249,VALID,0,VALID,22.7842,VALID,124,VALID,0,
2010-03-25, 03:42:05,VALID,997.852,VALID,0,VALID,91.5326,VALID,0,VALID,22.7647,VALID,124,VALID,0,
2010-03-25, 03:43:05,VALID,997.836,VALID,0,VALID,91.708,VALID,0,VALID,22.7647,VALID,124,VALID,0,
2010-03-25, 03:44:05,VALID,997.859,VALID,0,VALID,91.7614,VALID,0,VALID,22.7842,VALID,124,VALID,0,
2010-03-25, 03:45:05,VALID,997.85,VALID,0,VALID,91.8606,VALID,0,VALID,22.8037,VALID,124,VALID,0,
2010-03-25, 03:46:05,VALID,997.863,VALID,0,VALID,91.9064,VALID,0,VALID,22.8232,VALID,124,VALID,0,
2010-03-25, 03:47:05,VALID,997.855,VALID,0,VALID,92.0132,VALID,0,VALID,22.8427,VALID,124,VALID,0.0957031,
2010-03-25, 03:48:05,VALID,997.855,VALID,0,VALID,91.9674,VALID,0,VALID,22.8623,VALID,124,VALID,0,
2010-03-25, 03:49:05,VALID,997.869,VALID,0,VALID,91.998,VALID,0,VALID,22.8818,VALID,95,VALID,0,
2010-03-25, 03:50:05,VALID,997.916,VALID,0,VALID,91.9369,VALID,0,VALID,22.8427,VALID,95,VALID,0,
2010-03-25, 03:51:05,VALID,997.909,VALID,0,VALID,92.0209,VALID,0,VALID,22.8427,VALID,95,VALID,0,
2010-03-25, 03:52:05,VALID,997.942,VALID,0,VALID,92.0666,VALID,0,VALID,22.8818,VALID,95,VALID,0,